Temp
26 26 25 25 25 25 26 25 25 25 25 25 25 24 24 23 24 27 27 27 27 26 27 28 27 28 28 29 29 28 27 26 27 27 27 28 27 27 26 26 25 25 24 23 22 21 20 19 18 18 18 18 17 17 17 17 17 18 18 18 17 17 17 17 18 18 18 18 18 18 18 18 18 18 17 17 17 17 17 17 17 17 17 16 16 16
26 25 24 25 25 25 25 25 25 25 25 25 25 24 24 24 24 27 27 27 27 26 26 28 27 27 28 29 29 28 27 26 26 27 26 27 27 27 26 26 25 25 24 22 21 21 20 20 19 18 18 18 18 17 17 17 18 18 18 18 17 17 17 17 18 18 18 18 19 18 18 19 18 18 18 18 17 17 16 16 16 16 16 16 16 16
25 24 24 25 25 25 25 25 24 24 25 25 25 24 23 24 25 26 27 27 27 26 26 27 26 27 29 29 28 27 27 27 26 26 26 26 26 26 26 25 25 24 23 22 22 21 21 20 19 19 18 18 18 17 17 17 18 18 18 18 17 17 16 17 17 17 18 18 18 18 18 18 18 18 18 17 17 16 16 16 16 16 16 16 17 17
23 24 25 25 25 25 25 25 25 25 25 25 25 23 23 25 24 23 25 26 27 26 26 27 26 27 29 28 28 27 27 27 26 25 25 25 25 26 26 25 25 25 24 23 22 22 22 21 20 19 19 18 18 18 17 17 18 17 17 17 17 17 16 17 17 17 17 17 17 17 17 17 17 17 17 17 17 16 16 16 16 16 16 16 17 17
23 24 25 25 25 25 25 25 25 24 24 25 25 24 23 24 24 24 25 26 26 26 27 26 24 25 27 28 28 27 26 26 26 25 25 25 25 25 25 25 25 25 24 23 23 22 22 22 20 19 19 18 18 18 18 18 18 17 17 17 17 16 17 17 17 17 17 17 17 17 17 17 17 17 17 17 17 17 17 16 16 16 16 16 16 16
24 24 24 24 25 25 25 24 24 23 23 23 24 24 23 24 24 25 26 25 24 23 25 25 21 22 26 27 27 27 27 26 25 25 25 25 25 25 24 24 24 24 24 23 23 23 23 22 21 20 19 19 18 18 18 18 17 17 17 17 17 17 17 17 17 17 17 17 17 17 18 18 18 18 18 18 17 17 17 16 16 16 16 16 16 16
24 24 24 24 24 24 24 24 23 23 22 22 23 24 24 24 24 24 25 24 21 22 25 26 22 21 23 25 26 27 26 25 25 24 24 24 24 24 24 24 24 24 24 23 23 23 23 22 21 20 20 19 19 18 18 18 17 17 17 17 17 17 17 17 17 17 17 18 18 18 18 18 18 18 18 17 17 17 16 16 16 15 15 15 16 16
23 24 23 24 24 23 23 22 23 23 22 21 23 24 23 24 24 24 24 23 22 23 24 25 24 21 21 23 25 26 25 24 24 23 23 23 23 23 24 24 24 24 24 24 23 23 23 22 22 21 20 19 19 18 18 18 18 17 18 17 17 17 17 17 17 17 17 18 18 18 18 18 18 18 17 16 16 16 16 16 16 15 15 15 15 15
23 22 22 23 23 22 22 22 22 22 22 22 23 23 23 24 23 24 24 23 23 23 21 23 24 21 21 23 25 25 23 22 22 22 22 22 22 22 22 23 24 24 24 24 23 23 23 22 22 21 20 20 19 18 18 17 17 17 18 17 17 17 17 17 16 17 17 18 18 18 18 18 18 17 16 16 16 16 16 15 15 15 15 15 15 15
22 22 22 22 22 21 21 22 22 22 22 23 23 23 24 24 24 24 23 23 22 21 20 21 23 21 20 21 23 23 21 21 21 21 21 21 21 21 22 22 23 24 24 24 24 24 23 22 22 21 21 20 19 18 18 17 17 17 17 17 17 17 17 17 16 17 17 17 17 17 17 17 17 17 17 17 16 16 16 15 15 15 15 15 15 15
22 22 22 22 21 21 22 22 22 22 22 22 22 22 23 22 22 23 24 22 21 20 20 21 22 21 20 20 20 21 20 20 21 21 21 21 21 21 21 22 22 23 24 24 24 24 24 22 21 21 21 20 19 18 18 17 17 17 17 17 17 17 17 17 17 17 17 17 17 17 17 17 17 17 16 16 16 16 16 16 16 15 15 15 15 15
22 22 22 21 21 22 22 22 23 22 22 22 22 22 21 20 18 20 22 21 20 20 20 21 21 21 20 19 20 20 21 21 21 20 20 20 20 20 21 21 22 22 23 23 23 23 23 22 21 21 20 20 19 19 18 18 18 18 17 18 18 17 17 17 17 17 17 17 17 17 17 17 17 16 16 16 16 16 16 16 16 15 15 15 15 15
22 22 22 22 21 21 21 21 22 23 22 22 22 21 20 19 17 18 18 19 20 20 20 21 21 21 19 19 20 20 20 21 21 21 21 20 20 20 20 21 21 21 22 22 22 22 22 22 21 21 20 20 20 19 19 18 18 18 18 18 18 18 17 17 17 17 17 17 17 17 17 17 16 16 16 17 17 17 16 16 16 16 16 15 15 15
21 21 21 21 21 21 21 20 20 21 21 21 21 20 19 18 17 17 17 18 20 20 20 21 20 20 18 18 19 20 20 20 21 21 20 20 20 20 21 21 20 21 21 21 21 21 21 21 21 20 20 20 20 19 19 18 18 18 18 18 18 18 17 17 17 17 17 16 16 17 17 16 16 16 16 17 17 16 16 16 16 16 16 16 15 15
20 20 20 20 20 21 20 20 19 19 20 21 21 21 20 18 18 17 17 18 20 20 20 20 20 19 18 17 19 20 20 20 20 20 20 20 21 21 21 21 20 20 20 20 20 20 20 20 20 20 20 19 19 19 18 18 18 18 17 17 18 18 17 17 17 17 16 16 16 16 16 16 16 16 16 17 16 16 16 16 16 16 16 15 15 15
20 20 20 20 20 20 20 20 20 20 20 21 21 20 19 18 19 19 18 18 19 20 20 20 20 19 18 17 18 19 19 19 19 19 20 20 20 20 20 20 20 20 20 20 20 19 19 20 19 19 20 19 19 18 18 18 18 17 17 17 17 17 17 17 17 16 16 16 16 16 16 16 16 16 16 16 16 15 15 15 15 15 15 15 15 15
19 20 20 20 21 20 19 20 21 20 19 20 21 19 19 19 19 19 19 18 19 19 19 20 20 19 18 17 17 18 18 18 18 18 18 19 19 19 20 20 20 20 20 20 20 19 20 20 19 19 19 19 19 18 18 18 18 18 18 17 17 17 17 16 16 16 16 16 16 16 16 16 16 16 16 16 15 15 15 15 15 15 15 15 15 14
19 19 20 20 20 20 20 20 20 20 20 20 20 19 19 20 19 19 19 19 19 19 19 20 19 18 17 17 16 16 16 16 16 17 18 18 18 19 19 19 19 20 19 19 20 20 20 20 19 18 18 18 18 18 18 18 17 17 17 17 17 17 16 15 15 16 16 16 16 16 16 16 16 16 16 16 15 15 15 15 15 15 15 14 14 14
19 19 19 20 20 20 21 20 19 20 21 20 19 20 19 18 18 19 19 18 19 19 19 20 19 17 16 16 15 15 15 15 15 16 17 18 18 18 18 18 19 19 19 19 19 20 20 20 19 18 18 18 17 17 17 16 16 16 16 16 16 16 15 15 15 15 15 15 16 16 16 16 16 16 16 15 15 15 15 15 15 15 15 14 14 14
19 19 19 20 20 20 20 19 18 18 20 20 20 20 20 19 18 19 19 19 19 19 19 19 19 17 14 14 15 15 15 15 15 16 17 17 16 17 17 18 18 18 19 19 19 19 19 20 19 18 18 17 17 16 16 15 15 15 15 15 15 15 15 15 15 15 15 15 15 15 15 15 16 16 16 16 15 15 15 15 15 15 14 14 14 14
19 19 19 20 20 20 19 18 17 17 18 19 19 19 18 19 19 18 19 19 19 19 19 19 18 15 13 14 15 16 16 16 16 16 16 16 16 16 17 17 17 18 18 18 18 18 19 19 19 18 18 17 17 16 16 15 15 14 14 14 15 14 14 14 14 14 14 15 15 15 15 15 16 16 16 16 15 15 15 15 15 15 15 14 14 14
19 19 19 19 20 19 18 17 17 17 17 18 18 17 17 18 18 18 18 19 19 19 18 18 18 15 14 15 16 16 16 16 16 16 16 17 16 16 16 17 17 17 17 18 18 18 19 18 18 18 18 17 17 16 15 15 15 14 14 14 14 14 14 14 14 13 13 14 15 15 15 15 15 16 16 16 15 15 15 15 15 15 15 14 14 14
18 19 19 19 19 19 18 18 17 17 18 18 17 17 17 17 17 17 17 18 18 19 18 19 18 14 14 16 17 17 17 17 17 16 16 16 16 16 17 17 17 17 17 18 17 18 18 18 18 18 18 18 17 16 15 15 15 14 14 13 14 14 14 14 13 13 13 14 14 15 15 15 15 15 16 15 15 15 15 15 15 15 15 15 14 14
17 18 19 19 19 19 18 18 17 17 18 18 17 17 16 16 16 16 17 17 18 18 18 18 17 14 15 17 17 17 18 17 17 17 16 16 16 16 17 17 17 17 17 17 17 18 18 18 18 18 18 18 17 17 16 15 15 15 13 13 13 13 13 13 13 13 13 13 13 14 14 15 15 15 16 15 15 15 15 15 15 15 15 15 15 14
18 18 18 19 19 19 18 17 17 17 18 17 16 16 16 16 16 16 16 17 17 17 17 17 17 15 16 17 17 18 18 17 17 17 17 16 16 16 17 17 17 17 17 17 17 17 18 17 18 18 18 18 17 17 16 15 15 14 13 13 13 13 13 13 12 12 13 13 13 13 14 14 15 15 15 15 15 15 15 15 15 14 14 15 14 14
18 18 18 18 19 18 18 17 17 17 17 17 16 16 16 16 16 16 16 17 17 17 17 16 16 16 17 17 17 17 17 17 16 17 17 16 16 16 17 17 17 17 17 17 17 17 17 17 17 17 17 17 17 17 16 16 15 14 13 13 13 13 13 12 12 12 12 12 12 12 13 13 14 14 15 15 15 15 15 14 14 14 14 14 14 14
18 18 17 17 18 18 17 17 16 16 17 16 16 16 16 16 16 16 17 17 17 16 16 15 15 16 16 17 17 16 16 16 16 16 16 16 16 16 17 17 17 17 17 17 17 17 17 17 17 17 16 16 16 16 16 15 15 14 14 13 13 12 12 12 12 12 12 12 12 12 12 12 13 14 14 15 15 14 14 14 14 14 14 14 14 14
18 18 17 16 17 17 17 16 16 16 16 15 15 15 16 16 16 16 16 16 16 16 16 15 15 16 16 16 16 16 16 16 16 16 16 16 16 17 17 17 17 17 17 17 17 17 17 17 17 17 17 16 16 15 15 15 15 14 14 13 13 13 13 13 13 12 12 12 12 12 12 12 13 14 14 14 14 14 14 14 13 13 13 13 13 13
18 18 16 16 17 16 16 16 16 16 15 15 15 15 15 16 16 15 15 15 16 16 15 15 15 16 16 16 16 16 16 15 15 16 16 16 17 17 17 17 17 17 17 17 17 17 17 17 17 18 17 16 16 16 15 15 15 15 14 14 14 13 13 13 13 13 13 13 13 13 13 13 14 14 14 14 14 14 14 14 14 13 13 13 13 12
18 17 16 16 17 16 16 16 16 16 15 15 15 15 15 16 16 15 15 15 15 15 15 15 16 16 16 16 16 16 16 16 16 16 16 17 17 17 17 17 17 17 17 17 17 17 17 17 18 18 17 17 17 16 16 15 14 14 14 14 14 14 14 14 14 13 13 14 14 14 14 14 14 14 14 13 13 14 14 14 13 13 13 13 12 12
17 16 15 16 17 17 16 16 16 16 16 16 15 15 15 15 16 15 15 15 15 15 16 16 16 16 17 16 16 16 16 16 16 16 16 16 16 16 16 16 17 17 17 17 17 17 17 17 18 17 17 17 17 17 17 16 15 14 13 13 13 14 14 14 14 14 14 14 14 15 15 15 14 14 13 13 13 13 14 13 13 13 12 12 11 11
17 17 16 16 17 17 16 15 15 16 16 16 15 15 15 15 16 16 15 15 15 15 15 16 16 16 17 17 16 16 16 16 16 16 16 16 16 16 16 16 16 16 16 16 17 17 17 17 17 17 17 17 17 17 17 16 16 15 14 14 13 13 13 13 13 14 14 14 14 15 15 15 15 14 14 13 13 13 13 13 12 12 12 11 11 11
17 17 17 17 17 17 16 16 15 15 16 16 16 16 16 15 15 15 15 15 15 14 15 16 16 16 16 16 16 16 16 16 16 16 15 15 15 15 15 16 16 16 16 16 16 16 16 16 17 16 16 16 16 17 17 16 16 16 15 14 14 14 13 13 13 14 14 14 14 15 15 15 15 14 14 14 13 12 12 12 12 11 11 11 11 11
16 17 17 17 17 17 16 16 15 15 15 16 16 16 16 16 15 15 15 16 15 15 15 15 16 16 16 16 16 16 16 16 16 16 16 15 15 15 15 16 16 16 16 16 16 16 16 16 16 16 15 16 16 16 16 16 16 16 15 15 14 14 14 14 14 14 14 14 14 15 15 15 14 14 14 13 13 12 12 12 12 11 11 11 11 11
16 17 17 16 17 17 16 15 15 15 15 16 15 16 15 15 15 15 15 16 16 15 15 15 15 16 16 16 16 16 16 16 16 16 16 15 15 15 15 16 16 16 16 15 15 16 16 15 15 15 15 15 15 16 16 16 16 16 16 15 15 15 14 14 14 14 14 14 14 14 14 14 13 13 13 12 12 12 12 12 11 11 10 10 11 11
16 16 16 16 16 17 16 16 16 15 16 15 15 15 15 15 15 15 15 16 15 15 15 15 15 16 16 16 17 16 16 16 16 15 15 16 16 16 15 16 16 15 15 15 15 15 15 15 15 15 15 15 15 16 16 16 16 16 16 16 16 15 15 15 15 15 14 14 14 14 14 13 13 13 12 12 11 11 11 11 11 11 11 11 11 11
17 16 16 16 16 16 16 17 17 17 16 15 15 16 15 15 16 15 15 16 16 16 15 15 16 16 16 16 17 16 16 16 16 15 15 16 16 16 16 16 16 16 16 16 15 15 15 15 15 14 14 15 15 15 15 15 16 16 16 16 16 16 16 15 16 15 15 15 14 14 14 13 13 13 13 12 11 11 11 11 11 11 11 11 11 12
16 16 17 16 15 15 16 17 17 17 16 16 16 16 15 15 15 15 15 16 16 16 16 15 15 16 16 16 16 16 16 16 16 15 15 16 16 16 16 16 16 16 16 16 15 15 15 15 14 15 15 15 15 15 15 15 16 16 16 17 17 16 16 16 16 16 15 15 15 14 14 13 12 12 12 12 12 12 12 12 12 11 11 11 11 12
16 16 17 16 16 16 16 16 16 16 16 16 16 16 15 15 15 15 15 15 16 16 16 16 15 16 16 16 16 16 15 15 16 15 15 16 16 16 16 16 16 16 16 16 15 15 15 15 15 15 15 15 15 15 15 15 15 16 16 16 16 16 16 16 16 16 15 15 15 14 14 13 12 12 12 12 13 13 12 12 11 11 11 11 11 12
16 16 17 16 17 16 15 16 17 17 16 16 16 15 15 15 14 14 15 15 15 16 16 16 15 16 16 16 16 15 15 15 15 15 15 16 16 16 16 16 16 16 16 16 15 15 15 15 15 15 15 15 15 14 15 15 15 16 16 16 16 16 16 16 15 15 15 15 15 14 14 13 13 12 12 12 12 12 12 11 11 11 10 10 11 11
16 16 16 16 17 16 15 15 17 17 16 16 15 15 15 15 14 14 15 15 15 16 16 16 15 16 16 15 15 15 15 15 15 15 16 16 16 16 16 16 16 16 15 15 15 14 15 15 15 15 15 15 15 15 15 15 15 15 15 16 16 16 15 15 15 15 15 14 14 14 14 14 13 12 12 11 11 11 11 11 10 10 10 10 10 10
16 16 16 16 16 16 16 15 16 17 16 15 15 15 14 14 15 15 16 16 16 16 16 16 16 16 16 15 15 15 15 15 15 15 16 16 16 16 16 16 16 15 15 15 15 15 14 15 15 15 15 15 15 15 15 15 15 15 15 15 15 15 15 15 15 15 15 15 14 14 14 13 13 12 12 11 11 11 10 10 10 9 9 9 9 9
16 16 17 17 16 16 15 15 15 16 15 15 15 14 14 15 16 16 16 16 16 16 16 16 16 16 16 15 15 15 15 15 15 16 16 16 16 16 16 16 15 15 15 15 15 15 14 14 15 15 15 15 15 15 15 14 14 15 15 15 15 14 14 14 14 15 15 15 14 14 14 13 13 12 11 11 11 10 10 10 10 9 9 9 9 10
16 16 17 17 16 16 15 16 16 16 16 15 15 16 15 16 17 16 16 16 17 17 16 16 16 16 16 15 15 15 15 15 15 15 15 15 15 16 16 16 15 15 15 15 15 15 14 14 15 15 14 15 14 15 15 15 14 14 14 14 14 14 14 14 14 14 14 14 14 14 14 13 13 12 12 11 11 10 10 10 10 10 10 10 10 11
16 16 16 16 16 16 16 17 17 17 16 16 16 16 16 17 17 16 16 16 16 17 17 16 16 16 16 15 15 15 15 15 15 15 15 15 15 16 16 16 15 15 15 15 15 15 14 14 14 14 14 14 14 14 14 14 14 14 14 14 14 14 14 14 14 14 14 14 14 14 13 13 13 12 12 12 11 11 11 10 9 10 10 10 11 11
16 16 15 15 16 16 16 17 17 17 17 17 16 16 16 16 17 16 16 16 16 17 17 16 16 16 16 16 15 15 15 15 15 15 15 15 16 16 16 16 16 15 15 15 15 15 14 14 14 14 14 14 14 14 14 14 14 14 14 14 14 14 14 14 14 14 14 14 14 14 13 13 13 13 12 12 11 11 11 11 9 9 9 10 10 10
16 15 15 15 16 15 15 17 17 16 17 17 17 17 16 16 17 16 16 16 16 16 16 16 16 16 15 15 15 15 15 15 15 15 16 16 16 16 16 16 16 15 15 15 15 15 14 14 15 15 14 14 14 14 14 14 14 14 14 14 14 14 14 14 14 14 14 14 14 14 13 13 13 13 12 12 11 11 11 11 10 10 10 10 10 10
16 15 15 16 16 15 16 17 17 17 17 17 17 17 17 17 17 17 16 16 16 16 16 16 16 15 15 15 15 15 15 15 15 15 15 16 16 16 16 16 15 15 15 15 15 14 14 14 14 14 14 14 14 14 14 14 14 14 14 14 14 14 14 14 14 14 14 14 14 14 14 13 13 13 13 13 12 12 12 12 11 11 11 11 11 11
15 14 15 16 16 16 16 17 17 17 17 17 17 17 17 17 17 16 16 16 16 16 16 16 16 16 16 15 15 15 15 15 15 15 15 15 16 16 15 15 15 15 15 14 14 14 14 14 14 13 14 14 14 14 14 14 14 14 14 14 14 13 13 13 13 14 14 14 14 14 14 13 13 13 13 13 13 13 13 12 12 12 12 11 11 11
14 15 16 16 15 16 17 17 17 16 16 17 18 17 17 17 16 16 16 16 16 16 16 16 16 16 16 16 16 15 15 15 15 15 15 15 15 15 15 15 14 14 14 14 14 14 14 14 13 13 13 13 14 14 14 13 13 13 14 14 14 13 13 13 13 14 14 14 14 14 14 13 13 13 13 13 13 13 13 12 12 12 12 12 10 10
15 16 17 16 16 16 17 17 17 16 16 17 18 17 17 17 16 16 16 16 16 16 16 15 15 15 15 15 16 15 15 15 15 15 15 15 15 14 14 14 14 13 13 13 13 13 13 13 13 13 13 13 13 14 14 13 13 13 13 14 14 13 13 13 13 14 14 14 14 14 13 13 13 13 13 13 13 13 13 13 12 11 10 10 10 10
Height
775 779 782 784 785 783 781 780 781 780 781 783 783 783 781 781 778 771 771 770 771 777 773 769 771 768 766 762 760 764 767 769 770 769 769 768 769 772 774 776 779 782 783 786 790 793 795 798 800 803 804 806 808 809 810 811 813 814 815 816 817 817 818 819 820 821 821 821 822 822 822 822 822 823 824 825 825 826 826 827 828 828 828 828 828 829
776 783 787 785 784 784 783 782 782 783 783 782 782 781 779 778 775 768 770 771 771 776 772 768 772 769 765 762 761 765 768 769 769 770 771 769 770 772 774 777 779 782 783 786 790 792 794 797 799 802 803 805 807 808 810 811 812 814 815 816 817 817 818 818 819 820 821 821 822 822 822 822 823 823 824 825 825 826 826 827 828 828 828 828 828 829
781 786 788 785 783 784 784 783 784 783 783 782 778 780 780 774 771 770 770 771 771 773 770 769 773 768 761 760 763 765 766 767 767 769 770 770 771 773 774 778 779 781 784 786 789 791 793 795 798 800 802 804 806 807 809 810 812 813 814 816 816 817 817 818 819 819 820 821 821 822 823 823 823 824 824 825 826 826 827 827 828 828 828 829 829 829
789 790 787 785 784 785 784 783 784 781 780 779 776 778 776 771 775 777 774 772 771 771 769 770 772 766 760 761 763 764 765 765 767 769 770 771 772 773 773 776 778 780 783 786 787 789 791 794 797 799 801 803 805 806 808 809 811 812 814 815 816 817 817 817 818 819 820 820 821 822 823 824 824 825 825 826 826 827 827 828 828 828 828 828 829 828
793 791 785 785 784 783 783 783 784 783 779 778 778 779 777 775 777 776 774 772 769 770 769 771 776 769 762 764 764 763 765 767 769 770 772 774 774 775 776 777 778 779 782 785 786 788 790 792 795 798 800 802 804 805 807 809 810 812 813 814 815 816 817 817 817 818 819 820 821 822 823 824 824 825 826 826 827 827 828 828 828 828 829 829 829 829
792 790 785 786 785 783 785 787 789 788 784 783 785 785 784 782 779 775 774 774 777 780 771 772 787 781 765 765 766 764 766 770 773 773 774 775 774 776 778 779 780 780 781 783 784 786 788 791 794 797 799 801 803 804 806 808 810 811 813 814 815 816 817 817 817 817 818 819 820 821 822 823 824 825 826 826 827 828 828 829 829 829 829 829 829 829
792 789 786 788 788 787 788 790 791 790 790 791 788 784 784 783 782 779 776 777 784 783 772 772 788 788 773 769 769 767 771 777 776 776 778 777 776 776 777 778 779 780 780 781 783 784 786 789 792 795 798 800 802 804 806 807 809 811 812 813 815 816 816 817 817 817 818 819 819 820 821 822 823 824 825 827 827 828 829 829 829 829 829 830 830 830
793 792 792 790 790 792 794 796 794 792 795 795 787 784 785 783 783 781 777 779 779 776 775 771 776 787 783 776 773 769 776 784 781 781 784 782 782 780 779 778 777 777 778 779 781 782 784 787 789 793 796 798 801 803 805 806 808 810 812 813 814 815 816 816 817 817 818 818 819 820 821 821 823 824 825 827 827 828 829 829 830 830 830 830 830 831
796 798 800 795 794 798 800 799 795 793 794 790 784 784 785 784 784 782 779 779 775 781 790 777 773 789 788 777 773 774 784 792 788 788 789 787 786 785 782 780 777 776 776 776 778 780 781 784 787 790 793 796 800 802 804 806 807 809 811 813 814 815 816 816 816 817 818 818 818 819 820 820 822 823 825 826 827 828 828 829 830 830 830 831 831 831
799 801 800 798 801 804 801 796 793 796 795 788 785 785 781 780 781 780 780 780 779 792 800 783 777 791 795 788 784 786 797 800 794 793 793 791 790 788 786 783 779 776 774 774 776 778 781 783 786 788 791 794 798 800 803 805 806 808 809 811 813 814 815 816 816 817 818 818 818 818 819 819 821 822 824 826 827 827 828 829 829 830 830 831 831 831
800 798 798 801 804 803 799 794 792 795 793 788 788 788 786 787 788 780 774 778 790 802 799 786 785 792 801 806 801 800 805 803 799 798 796 795 793 791 789 785 781 777 775 774 776 778 780 783 786 788 790 793 796 798 801 804 806 807 808 810 811 813 814 815 816 817 818 818 819 818 818 818 820 821 823 825 826 827 828 828 829 829 830 831 831 832
799 799 800 802 803 801 798 794 791 789 789 788 787 790 795 803 809 800 787 789 800 805 798 790 788 791 805 814 808 804 803 799 801 802 800 799 796 794 792 789 785 781 778 777 778 779 780 783 786 788 790 792 795 797 799 802 805 806 807 808 810 811 813 814 815 816 818 818 819 819 818 818 819 820 822 823 825 826 827 828 828 829 829 830 831 831
798 801 802 801 801 801 802 800 793 788 789 789 787 793 803 812 823 823 816 812 805 800 797 793 790 797 812 818 810 806 804 801 801 800 800 800 799 797 794 792 790 786 784 782 781 782 782 784 786 788 791 792 793 796 798 801 802 803 805 806 807 809 811 813 814 815 817 818 818 819 819 818 818 819 820 822 824 825 826 827 828 828 829 830 830 831
804 804 802 803 802 801 804 808 806 802 796 794 795 801 808 817 828 830 826 819 804 797 797 794 797 808 818 819 811 807 806 803 802 801 800 800 799 798 795 794 794 791 790 788 786 786 785 785 787 788 790 791 792 794 797 800 800 801 803 804 805 807 809 811 813 814 816 816 818 819 819 819 818 818 819 821 823 824 826 826 827 828 828 829 830 830
818 816 809 810 810 806 806 809 810 808 802 798 797 799 807 815 822 825 826 818 803 797 797 798 805 814 822 822 813 807 806 804 804 803 801 800 798 797 796 795 795 794 793 792 791 790 789 788 788 788 789 791 792 794 796 798 799 800 801 802 803 805 806 809 811 814 815 815 817 818 819 819 818 818 818 820 822 823 825 826 827 827 828 828 829 829
818 817 811 811 811 809 811 808 805 807 807 800 794 800 811 815 812 815 820 816 806 802 801 801 806 809 815 820 813 809 811 809 807 806 803 802 800 798 797 796 796 795 795 794 794 793 792 790 789 789 789 790 792 793 795 797 798 800 801 801 802 803 805 808 811 813 814 815 816 817 818 819 818 817 817 818 820 822 824 825 826 827 827 827 828 829
821 816 810 811 809 809 812 808 803 807 809 802 799 807 810 806 807 811 813 811 810 813 807 800 805 810 814 820 818 816 816 814 813 811 808 806 803 800 798 797 797 797 796 795 794 794 793 791 790 790 790 790 792 793 794 794 796 798 799 800 802 802 804 807 810 812 814 815 815 816 817 818 817 817 816 817 819 821 823 824 825 826 826 827 827 828
826 819 813 814 814 811 810 808 805 804 803 803 808 811 806 804 806 808 812 812 809 813 809 800 806 817 821 825 828 825 823 823 820 816 812 809 806 804 801 799 799 798 798 796 794 793 793 792 792 791 791 791 792 793 793 794 795 796 797 798 800 800 801 803 805 808 811 814 814 815 816 817 817 816 816 816 817 819 821 823 824 824 825 826 826 827
823 822 817 814 816 811 806 809 813 806 801 804 808 806 808 816 815 809 815 818 812 812 812 803 806 821 830 832 834 833 831 830 826 821 816 813 811 809 806 804 801 799 799 797 794 793 793 792 793 792 793 793 793 794 795 796 797 797 797 797 798 798 798 798 801 803 806 810 813 814 816 816 817 816 816 816 816 817 819 821 822 823 824 824 825 826
820 823 821 814 813 812 809 814 823 819 807 804 804 803 807 814 816 813 813 815 813 813 813 808 809 826 839 839 836 834 832 831 829 824 820 818 816 814 811 808 805 802 800 799 797 795 794 793 792 792 793 794 795 795 796 797 798 798 798 798 798 797 796 796 798 800 803 807 810 812 814 815 816 816 816 815 816 817 818 820 821 822 822 823 824 824
820 823 824 816 811 814 819 824 828 827 820 813 812 815 817 813 812 814 812 809 810 813 816 815 817 833 843 838 833 831 828 828 827 824 821 819 818 815 813 811 808 806 803 800 799 797 796 795 793 793 793 794 795 796 796 797 797 797 798 799 798 798 797 796 797 798 801 805 809 810 812 813 815 815 815 815 815 816 817 818 819 820 821 822 822 823
823 822 822 819 816 820 827 829 827 826 825 823 822 826 827 821 818 821 817 810 808 812 818 817 821 837 842 833 829 828 826 825 824 823 821 819 818 817 815 813 810 808 805 802 801 799 797 796 795 794 793 793 794 795 796 796 796 797 797 798 798 798 797 797 797 798 800 804 808 809 809 811 813 814 814 814 814 815 816 817 818 819 820 820 821 821
827 824 822 821 820 823 826 826 827 828 825 823 826 829 828 825 826 827 824 819 814 814 816 813 822 839 838 828 827 825 823 823 821 821 821 819 819 817 815 813 811 809 806 804 803 801 799 798 797 795 794 793 793 794 795 796 796 797 797 797 798 797 797 798 798 798 799 802 806 807 808 808 810 812 812 813 813 814 815 816 816 817 818 819 819 820
828 827 825 823 821 823 825 825 826 826 823 824 828 829 830 829 830 829 827 824 820 819 818 816 826 840 835 825 824 822 820 821 819 820 820 820 819 816 813 813 811 809 807 805 804 802 801 799 797 796 794 793 793 793 794 794 794 796 796 796 797 797 798 798 797 797 798 801 804 806 807 807 807 809 810 810 811 812 813 814 815 815 816 817 818 819
829 830 827 822 820 824 828 829 829 826 824 830 834 832 832 831 830 831 828 824 824 825 824 822 828 835 831 824 822 821 819 820 821 820 819 820 819 816 814 812 810 809 807 806 805 803 802 801 799 797 795 794 793 793 793 793 793 794 794 794 795 796 797 797 797 796 797 800 803 803 804 806 806 807 808 808 809 810 811 812 813 813 814 815 817 817
828 831 829 827 826 828 830 832 834 832 829 832 837 836 833 831 831 833 829 824 825 827 827 828 830 830 827 823 823 823 822 823 823 821 819 820 819 817 815 812 810 809 808 806 805 804 803 802 800 799 798 796 795 794 793 792 792 792 792 792 793 794 795 796 797 797 797 799 801 800 800 802 803 805 806 806 807 808 809 810 810 811 812 813 814 816
827 829 832 834 832 831 833 835 837 837 834 835 838 838 836 833 832 831 826 824 828 828 831 836 835 830 827 825 825 826 826 826 825 823 821 820 819 817 815 813 811 810 809 807 806 804 803 802 801 801 799 798 796 795 794 793 792 791 791 791 791 792 793 794 795 796 796 797 799 799 799 799 801 802 803 804 805 806 807 808 808 809 810 811 812 814
827 830 836 838 836 835 836 837 838 839 840 841 841 839 838 835 833 832 831 832 832 831 834 837 834 832 831 828 828 829 828 827 827 825 824 821 819 817 815 813 811 810 809 808 807 805 804 802 801 800 800 799 797 796 794 792 791 790 790 791 791 791 791 791 793 794 795 795 797 797 798 798 799 800 800 801 802 804 804 805 806 808 808 809 810 812
827 830 837 838 837 838 839 838 838 840 842 844 843 840 839 837 835 836 838 836 833 834 837 836 834 833 832 829 830 830 829 828 827 825 823 820 818 816 814 813 811 810 809 808 807 806 805 803 802 800 799 799 797 796 795 793 792 790 789 789 790 790 789 790 791 792 793 793 794 794 795 796 797 797 798 799 800 801 802 803 804 806 807 807 808 810
829 831 838 838 835 837 839 838 839 840 841 842 842 841 840 838 837 837 839 837 836 837 837 835 834 832 830 831 831 829 828 827 825 824 822 820 819 817 815 813 811 810 809 808 807 806 805 804 802 800 799 798 796 796 795 794 793 791 790 790 789 789 789 789 789 790 790 790 790 790 791 792 793 794 795 796 797 798 799 801 802 803 805 806 807 808
831 836 841 838 833 835 840 841 839 838 838 840 841 840 839 839 837 837 839 838 837 836 835 835 834 831 828 829 829 827 827 826 824 824 823 821 820 819 817 815 813 811 810 808 807 806 805 803 802 801 799 798 796 795 794 793 792 791 791 790 789 789 788 788 788 787 788 788 786 786 787 789 790 791 792 793 794 795 797 798 799 801 803 804 805 806
831 835 838 837 833 833 839 842 841 839 838 838 839 839 839 838 837 837 838 838 838 839 837 833 831 830 828 828 828 826 826 826 825 824 823 822 821 819 818 817 814 812 811 809 807 806 805 804 803 801 800 798 796 795 794 793 792 790 790 789 789 788 788 787 787 786 786 786 783 782 784 786 787 788 789 790 791 793 794 796 798 799 801 803 803 803
833 833 833 835 833 831 836 840 841 842 840 836 834 835 837 838 838 838 837 837 839 840 838 833 831 832 831 829 828 827 826 826 826 824 824 824 822 820 819 817 815 813 811 810 808 807 805 804 803 802 801 799 797 795 794 792 791 790 789 788 787 787 786 786 786 785 784 783 782 782 782 784 785 786 787 787 789 790 791 793 795 797 799 801 801 801
836 833 832 836 834 831 836 840 841 843 841 835 832 832 834 836 837 837 836 835 836 837 837 835 833 832 830 829 829 828 826 826 825 823 824 824 823 822 820 817 816 814 812 811 809 807 806 805 804 803 801 799 798 796 794 792 791 790 788 787 786 785 785 784 784 783 783 782 781 781 781 782 783 784 785 785 786 788 789 791 793 795 798 799 798 800
837 836 836 838 835 831 835 840 845 844 836 833 833 833 835 836 836 836 835 833 833 835 836 836 833 831 830 829 827 826 825 825 825 824 824 823 822 822 820 817 816 814 813 811 810 809 808 806 805 803 801 799 797 795 793 792 790 789 788 786 785 784 784 783 782 782 782 781 781 781 780 781 781 783 784 784 784 786 788 790 792 794 796 797 797 799
837 837 837 837 835 834 835 837 840 837 831 831 834 834 836 837 836 836 835 831 831 834 835 834 833 830 829 827 825 825 825 824 824 825 824 823 821 821 819 818 816 815 814 812 811 810 808 807 805 803 801 800 797 795 793 791 790 788 786 785 784 783 783 782 781 781 781 780 780 780 779 779 780 781 782 783 783 785 787 789 790 792 794 794 795 798
835 836 836 837 838 838 833 828 827 827 828 833 834 832 833 833 832 836 836 831 828 831 832 832 831 829 828 827 824 824 824 822 822 824 823 821 821 820 819 818 816 815 814 813 812 811 809 807 806 803 801 800 797 795 793 792 790 788 786 784 783 782 782 781 780 780 780 779 779 778 778 778 779 780 781 782 783 784 785 787 788 790 792 792 793 795
835 835 834 837 840 838 833 829 827 827 828 830 830 829 832 833 832 835 836 830 826 828 830 831 831 829 828 827 824 824 823 820 819 822 822 821 820 819 818 817 816 815 814 813 811 810 809 807 805 803 801 799 797 795 794 792 790 787 785 784 783 782 781 780 779 778 778 778 778 777 778 778 778 779 779 780 781 781 782 784 786 787 789 790 792 794
838 835 833 835 836 835 836 834 830 830 830 828 828 830 833 834 833 835 834 828 826 827 827 829 830 828 827 827 825 825 824 821 820 821 821 820 819 818 817 816 815 814 813 812 811 810 809 807 805 802 801 798 797 795 793 791 789 787 785 784 782 781 780 779 779 778 777 777 777 776 776 776 776 777 777 778 779 780 781 782 784 785 787 789 791 793
837 834 832 833 831 834 839 834 825 824 828 827 828 831 832 832 835 836 833 828 826 826 825 827 829 827 825 826 825 824 825 825 823 822 820 819 819 818 817 816 815 814 813 811 811 810 809 806 804 802 800 798 797 795 793 791 789 787 786 784 782 781 780 780 779 778 777 777 776 775 775 775 774 775 776 777 777 778 779 780 782 784 785 787 789 791
833 833 833 833 830 832 839 836 825 822 825 827 828 830 831 834 836 834 829 825 825 825 824 826 827 825 824 825 824 823 824 824 823 821 820 819 818 817 816 816 815 814 813 812 811 810 808 806 804 802 800 798 797 795 793 792 789 787 786 784 783 782 780 780 779 778 777 776 775 775 774 774 773 773 774 774 775 775 777 778 779 781 782 784 787 790
832 834 834 834 832 831 833 834 828 823 824 827 829 830 834 836 832 826 823 823 823 824 823 824 824 824 823 823 823 823 822 821 821 820 819 818 818 817 816 815 814 813 812 811 810 809 808 806 804 802 800 798 797 795 793 792 790 788 786 784 783 782 781 779 778 777 776 775 774 774 773 773 773 772 772 773 773 773 774 775 777 779 780 782 785 789
831 832 828 827 831 833 834 837 835 828 826 828 830 832 835 832 824 820 822 822 821 822 823 822 822 822 823 823 822 822 821 820 820 819 817 817 816 815 815 814 814 813 811 810 809 808 807 805 803 802 800 798 796 795 793 792 790 788 786 784 783 782 781 779 778 776 775 774 773 772 772 771 771 771 771 771 771 771 772 773 774 776 778 780 783 785
830 830 825 822 826 831 832 831 828 824 823 826 827 826 826 824 819 820 823 821 819 820 820 820 821 821 822 823 822 822 821 820 819 818 817 816 815 814 813 813 812 811 810 809 808 807 806 805 803 801 800 798 796 794 792 791 789 787 786 784 782 781 780 778 777 776 774 773 772 771 770 770 769 769 769 769 770 770 771 771 773 774 776 778 780 781
827 828 828 826 825 826 824 820 818 819 820 823 823 821 821 820 819 821 824 822 820 819 819 820 821 821 821 821 821 820 820 819 818 817 816 815 813 812 812 811 810 810 808 808 807 807 806 805 803 801 799 797 796 794 791 790 788 786 785 783 781 780 779 777 776 775 773 772 771 770 769 768 767 767 767 767 767 768 769 770 771 772 773 775 776 777
825 828 831 829 824 823 821 817 816 818 819 819 820 820 821 821 820 820 822 821 820 819 818 820 820 820 820 820 819 819 818 817 817 816 815 813 812 811 810 810 809 808 807 806 806 806 805 803 802 800 798 797 795 793 791 789 787 785 783 781 780 779 777 776 775 773 772 771 769 768 767 766 765 765 764 764 765 765 766 767 768 768 770 771 771 772
824 827 830 828 826 827 824 817 816 818 818 817 817 818 818 819 818 818 820 820 818 818 819 819 819 819 819 819 819 819 818 817 816 815 813 812 811 810 809 808 807 806 806 805 805 804 803 801 800 798 797 796 794 792 790 788 786 784 782 780 778 777 776 774 773 772 770 768 767 766 765 764 763 762 762 762 762 761 762 763 764 765 765 766 767 768
824 829 828 825 824 824 821 814 813 816 816 815 816 816 815 815 815 816 818 818 818 819 819 819 819 819 818 818 818 818 817 816 815 814 812 811 810 809 808 807 806 806 805 804 803 803 801 800 798 797 795 794 792 791 789 787 785 783 780 778 776 775 774 773 771 770 768 766 765 764 763 762 761 760 759 759 758 758 758 759 759 760 760 760 761 762
826 829 825 822 822 821 816 812 812 814 814 812 813 813 813 813 815 816 817 817 817 818 817 818 818 818 817 817 817 817 817 815 814 813 812 811 810 809 808 807 806 805 803 803 802 801 799 798 797 795 794 792 791 790 787 785 783 781 779 776 774 773 772 771 769 768 766 764 762 761 760 760 759 758 757 756 755 754 754 754 755 756 755 755 755 756
826 824 819 822 824 819 814 811 813 816 814 809 808 811 812 814 815 816 815 816 816 816 816 816 816 816 817 817 816 816 816 815 813 813 812 811 809 808 807 806 805 804 802 801 800 799 797 796 795 794 792 790 789 787 785 783 781 779 777 774 772 771 770 769 767 765 763 761 760 759 758 757 756 755 754 753 752 751 750 750 751 752 752 752 752 753
821 817 815 819 819 815 811 809 812 815 814 810 808 810 811 813 815 815 814 814 815 814 814 815 815 816 816 816 815 815 814 814 813 813 812 810 809 808 807 806 805 803 802 800 799 797 796 794 793 792 790 788 787 785 783 781 779 777 774 772 770 769 768 767 765 763 761 759 757 757 756 755 754 753 752 750 750 749 748 747 747 748 749 749 749 750
Wind_Speed
4 3 1 3 5 6 6 4 6 5 4 6 6 6 7 6 5 5 2 2 1 6 7 8 8 8 8 6 3 3 6 9 10 11 10 11 11 10 10 10 8 7 7 9 12 13 13 12 12 11 9 9 8 7 8 9 9 9 9 10 11 11 11 10 9 9 8 8 8 8 8 8 8 8 7 7 6 6 6 6 5 4 4 4 4 3
4 2 4 6 6 7 6 3 3 4 5 6 6 6 7 7 6 4 1 3 2 6 5 4 6 8 8 6 1 2 6 7 8 10 10 11 10 9 9 9 8 7 7 9 11 12 13 13 13 12 10 10 10 9 10 10 10 10 10 10 11 11 10 9 9 8 7 6 6 7 7 7 8 7 7 7 7 7 6 6 5 4 4 4 4 3
4 2 7 6 5 4 3 2 2 5 6 6 5 5 5 5 5 3 2 4 4 5 3 3 5 8 6 4 2 3 5 5 4 6 7 9 9 8 9 9 8 8 8 9 10 12 13 14 14 13 11 10 10 10 11 11 11 11 11 10 10 10 9 9 9 8 7 7 6 6 6 6 6 7 7 7 7 6 6 5 4 4 3 3 3 3
1 5 7 5 3 3 1 3 2 4 4 5 4 5 5 2 3 5 5 6 4 4 4 2 5 7 4 3 3 2 3 3 2 3 4 6 7 7 6 7 8 9 8 9 10 11 12 14 14 13 12 11 10 11 11 11 12 12 11 11 11 10 9 10 10 9 9 9 9 8 7 6 6 7 7 7 6 5 5 4 4 4 3 3 3 3
4 7 6 4 2 4 4 3 5 5 3 1 2 5 4 3 4 5 1 4 5 5 5 5 7 7 5 5 4 4 1 1 2 1 0 1 3 4 3 3 5 6 6 7 9 10 11 13 13 13 13 12 11 12 12 12 13 12 11 11 11 10 9 10 11 11 11 11 10 9 8 7 6 6 6 5 5 4 4 4 5 5 4 4 4 3
6 6 5 4 3 5 5 4 8 8 6 1 4 6 8 7 6 6 4 5 6 6 5 4 8 6 5 5 2 2 3 6 7 7 6 4 2 2 3 3 4 5 5 5 7 9 11 12 13 13 14 13 12 12 12 12 12 11 10 11 11 10 9 10 11 12 11 10 10 9 8 6 6 5 4 4 4 4 4 5 5 5 5 5 5 5
4 5 4 5 5 6 6 4 8 10 8 3 4 8 8 8 7 7 7 6 7 6 3 2 8 5 6 4 2 2 5 10 10 12 12 9 7 4 3 4 5 6 7 6 7 8 10 12 13 13 14 14 12 12 12 12 11 11 10 11 11 10 9 10 11 12 11 10 10 9 7 6 5 5 5 4 4 5 5 5 5 5 5 5 5 5
4 6 5 7 6 5 5 4 8 11 7 3 7 9 9 8 7 7 8 7 7 5 2 5 8 6 6 3 5 2 6 10 12 15 15 13 12 11 8 5 5 7 8 8 9 10 10 12 13 14 15 15 13 12 12 12 12 11 11 11 11 10 9 10 11 11 10 10 10 9 7 6 5 6 6 6 5 5 6 6 5 5 5 5 4 4
5 8 8 9 6 4 5 5 8 10 7 5 10 10 8 7 8 7 7 8 5 5 6 7 7 7 6 3 6 4 6 11 13 15 15 15 15 14 12 10 7 6 8 9 9 10 11 13 14 15 15 15 15 13 12 12 11 12 12 12 11 10 9 9 10 11 10 9 9 9 8 8 7 7 8 7 7 6 6 6 5 5 4 4 3 3
5 7 8 9 6 6 8 6 6 8 7 7 12 12 9 8 8 7 6 6 5 6 7 4 3 6 3 3 5 5 8 11 11 12 13 15 15 15 14 13 11 6 6 8 8 9 11 13 14 14 15 15 16 14 13 12 12 12 12 12 12 11 10 9 10 10 10 9 9 9 9 9 9 9 9 8 8 7 7 6 6 5 4 4 4 3
5 3 4 8 7 7 9 7 4 5 7 8 11 11 8 6 7 8 6 4 6 7 4 2 3 6 4 3 5 6 7 9 9 10 12 14 15 15 14 14 13 10 5 3 5 7 10 11 12 13 15 15 15 14 14 13 13 13 13 13 13 12 11 10 10 10 10 10 10 9 10 11 11 11 10 9 9 8 7 7 6 6 5 5 4 4
4 2 2 5 6 9 10 7 3 3 6 8 7 6 6 4 5 7 4 4 8 5 3 4 3 5 4 3 6 6 8 9 9 10 13 15 15 14 14 14 14 13 9 5 3 4 6 8 10 11 13 15 15 14 14 15 14 14 14 14 14 14 13 12 12 12 11 11 10 10 11 12 13 13 12 11 10 9 8 8 7 7 7 6 5 4
1 3 5 3 3 10 11 8 4 2 4 6 4 3 5 2 1 3 3 4 7 3 4 5 4 2 2 5 6 7 9 10 10 11 12 14 14 13 13 14 13 13 12 9 6 4 3 4 7 10 11 13 14 15 15 15 16 16 15 15 16 15 14 13 13 13 13 12 11 10 11 12 13 13 12 11 10 10 9 9 9 8 8 7 6 5
1 5 6 6 3 8 11 7 5 5 5 5 4 2 3 2 2 3 3 3 4 1 3 3 2 2 5 5 6 7 9 11 11 11 12 12 13 12 12 13 12 13 13 11 9 7 5 4 5 6 9 11 12 14 14 15 17 17 17 17 17 16 15 14 13 13 13 12 11 10 11 12 13 14 13 12 11 11 10 9 9 9 8 8 7 5
4 2 6 9 6 9 9 6 7 8 7 5 3 3 3 2 2 3 2 2 1 2 5 5 3 3 4 3 7 8 8 10 11 12 12 12 12 11 11 12 12 13 13 11 11 10 9 8 6 5 6 8 10 13 14 15 16 16 17 18 18 17 16 14 13 13 12 11 11 11 11 12 13 14 13 12 12 11 10 10 10 9 8 8 7 6
6 2 7 6 4 7 7 5 7 8 5 2 2 4 2 1 3 3 3 4 4 1 3 4 3 3 4 4 8 10 9 12 13 14 15 14 14 13 11 12 12 12 12 11 11 11 11 10 8 6 5 6 8 12 14 15 16 16 17 17 17 17 15 13 13 11 11 10 11 12 12 12 13 14 14 13 13 12 11 10 10 9 9 8 7 7
5 3 6 4 3 6 6 6 8 7 4 2 2 3 3 3 4 5 2 1 3 3 1 2 3 5 5 3 9 13 12 15 16 16 16 15 16 14 12 12 12 12 12 10 10 11 12 12 9 7 6 6 7 10 13 15 15 16 16 16 16 17 14 12 11 9 9 10 11 12 13 13 13 14 14 14 14 13 12 11 11 10 10 9 8 7
5 2 6 5 5 5 3 5 5 7 7 4 2 4 5 4 3 4 3 1 3 2 1 2 2 3 2 1 9 14 14 16 16 16 15 15 16 15 14 14 14 13 12 11 11 11 13 13 11 8 7 6 6 7 9 11 13 13 15 16 17 17 15 15 15 12 11 11 12 12 13 13 13 14 14 15 15 14 13 12 11 11 10 9 8 8
4 3 5 4 5 4 2 3 2 5 6 4 3 2 3 3 1 1 2 2 3 1 1 2 3 5 3 3 8 11 12 13 14 14 14 15 16 14 13 14 15 14 12 12 11 10 12 14 12 8 7 6 6 5 5 7 8 9 11 11 13 17 19 20 22 19 14 14 13 12 13 13 13 13 14 15 15 14 14 13 12 11 10 10 9 8
3 3 3 4 2 1 2 4 4 4 5 2 0 1 3 3 3 3 2 3 4 3 1 1 3 3 5 5 8 10 10 11 11 11 12 13 13 12 12 13 13 13 12 11 11 10 11 14 15 11 6 6 6 4 4 5 4 5 6 6 11 17 19 22 23 20 16 15 15 14 14 14 14 14 13 14 14 14 13 13 12 11 10 10 9 8
2 2 2 3 1 2 2 6 6 6 6 4 2 4 5 3 2 1 1 2 3 3 3 2 1 4 5 4 6 9 9 10 10 10 10 10 11 11 11 12 11 11 11 11 11 10 10 13 15 13 8 6 7 5 5 6 5 5 7 9 12 14 16 20 22 20 18 16 16 16 16 15 15 14 13 13 14 13 12 12 12 11 10 10 9 8
2 2 2 2 1 1 3 5 6 7 7 6 5 5 5 4 3 3 1 1 2 3 3 3 1 5 4 3 5 8 8 8 9 10 9 9 10 10 10 11 11 11 11 11 11 10 10 11 13 13 11 7 5 5 5 5 5 6 7 9 11 12 14 17 18 19 18 17 17 17 17 16 15 14 14 14 13 13 12 12 12 11 10 10 9 8
2 2 2 1 3 3 4 3 4 5 4 4 5 5 5 4 4 4 2 2 2 1 1 3 1 4 2 3 5 6 7 8 9 9 9 8 9 9 9 10 10 10 11 11 10 10 10 11 10 11 11 10 7 3 3 4 5 6 7 8 9 12 14 15 17 19 17 17 18 17 16 17 17 16 15 14 14 13 12 12 11 11 10 10 9 8
1 2 2 0 2 2 4 3 1 1 2 2 4 5 5 4 3 4 4 3 2 1 1 3 0 3 2 3 5 6 7 8 9 9 9 8 8 9 10 10 9 9 10 10 10 10 11 11 10 10 10 11 10 6 2 5 7 7 8 10 11 12 13 14 17 19 17 18 20 18 16 16 17 17 17 16 15 14 13 12 11 11 10 9 8 8
1 2 3 2 1 3 4 3 3 2 1 4 4 5 5 4 3 2 2 3 1 2 4 4 2 4 2 3 5 7 8 9 9 10 9 8 8 9 10 9 9 9 10 10 10 10 11 12 11 11 11 11 11 9 5 3 6 8 10 11 11 13 15 15 17 19 21 23 24 22 20 17 16 18 18 17 16 16 15 14 13 12 11 10 9 8
2 2 4 4 4 2 2 2 1 1 2 2 3 5 5 4 3 3 3 3 1 2 3 3 3 3 2 4 7 9 10 10 10 10 9 9 9 9 9 9 9 9 9 10 10 10 10 11 12 13 13 12 11 11 9 5 2 4 8 9 10 13 16 18 19 21 24 25 24 24 26 24 22 20 19 19 18 17 17 16 15 14 12 11 9 8
1 2 4 5 5 5 5 4 3 3 4 2 2 4 5 5 5 4 3 2 2 1 1 2 3 4 4 7 9 10 10 10 9 10 10 9 9 10 9 9 9 8 8 9 10 10 10 10 11 13 12 12 12 12 11 9 6 3 2 5 9 12 14 17 18 19 23 24 23 22 24 26 25 22 22 22 20 19 18 17 17 15 13 12 10 9
3 1 3 4 4 4 4 2 1 2 2 1 1 3 4 4 5 4 3 4 4 3 1 4 4 5 5 7 9 9 9 9 8 9 9 9 9 9 9 10 10 9 9 9 10 10 11 10 10 11 12 11 11 12 12 12 10 8 4 3 6 9 12 13 14 17 20 22 23 23 22 24 25 23 23 23 22 21 21 21 19 17 15 14 12 10
4 1 1 2 2 2 2 1 1 1 1 1 1 2 3 3 4 4 4 5 6 4 3 4 4 5 6 7 8 9 8 9 8 7 7 8 9 10 11 11 11 11 11 11 10 11 11 10 10 11 11 9 9 11 11 12 11 10 8 5 4 8 12 15 17 19 20 21 24 24 23 23 23 22 23 24 23 23 23 23 21 19 18 16 13 11
3 1 2 3 2 1 1 1 2 3 3 3 1 0 1 2 3 3 3 4 4 3 3 4 4 3 5 6 8 8 7 7 7 6 7 8 10 11 12 12 11 11 11 11 11 11 11 11 11 12 13 10 9 9 9 9 9 9 10 8 6 7 9 13 16 19 21 22 23 22 22 22 21 22 23 22 22 23 24 23 22 22 21 18 14 12
3 0 3 4 3 1 1 2 3 2 2 2 2 1 1 1 1 1 2 2 2 1 2 4 3 1 4 6 8 7 7 7 7 7 8 8 10 11 12 12 12 12 12 12 11 11 11 12 13 14 15 14 12 10 8 7 7 6 7 8 8 8 9 10 12 15 19 20 19 18 19 19 19 21 22 21 22 25 25 23 22 22 22 19 16 15
3 0 3 4 5 1 2 4 4 3 3 3 3 3 1 1 2 2 2 2 3 3 3 4 3 3 5 7 8 8 8 8 9 9 9 8 9 11 11 12 12 12 13 13 12 12 12 12 13 14 16 16 14 12 10 8 6 5 5 6 7 8 9 10 12 15 17 18 17 15 15 17 18 19 20 20 21 23 23 22 22 22 23 22 19 17
3 2 1 3 4 0 2 4 4 4 6 5 3 3 1 1 1 2 3 3 3 3 3 3 3 5 7 8 8 9 9 9 9 9 8 8 9 11 11 12 12 12 13 13 13 13 13 13 14 15 16 16 15 15 13 10 8 6 6 6 6 6 8 9 11 13 15 15 15 13 13 15 16 17 19 20 20 21 23 23 22 23 24 23 20 17
1 3 1 1 4 1 3 4 5 6 5 1 3 3 0 1 2 3 4 4 4 4 3 4 4 6 8 8 8 9 9 9 9 7 6 7 8 9 11 12 12 12 12 12 12 13 14 15 15 16 16 16 15 15 14 12 9 8 7 7 6 5 7 8 9 10 12 12 12 12 13 13 14 16 18 19 20 22 23 23 22 24 25 23 19 17
1 2 1 1 3 2 2 4 5 4 1 3 4 3 1 1 2 5 6 5 5 5 4 4 5 6 7 7 8 9 9 9 7 5 5 7 7 9 10 11 11 12 12 12 12 13 15 16 16 16 16 16 16 15 14 13 12 10 8 6 5 5 6 7 7 8 9 9 10 10 10 10 12 15 14 15 21 24 23 22 23 24 23 21 20 18
1 1 1 1 2 1 2 5 3 1 3 5 4 3 3 2 2 4 6 4 4 3 4 4 5 6 7 8 8 7 9 8 3 2 6 8 8 9 9 10 10 11 11 12 13 14 15 16 16 16 16 16 15 14 14 14 14 12 10 7 6 4 4 5 6 6 6 7 8 8 8 9 11 13 13 14 19 22 22 21 22 22 21 19 19 18
2 2 2 2 2 2 4 4 3 3 3 5 4 3 2 2 1 3 6 2 4 2 3 4 6 6 7 8 8 8 9 7 1 3 7 9 9 9 9 9 10 11 12 13 13 14 15 15 15 16 15 15 15 15 14 14 14 13 11 9 7 5 4 4 5 5 5 6 7 7 7 8 9 11 12 14 17 20 21 20 20 20 20 18 18 18
2 2 3 3 2 2 5 5 4 5 3 3 3 3 2 1 1 2 6 3 5 3 2 4 5 6 6 7 8 9 9 6 1 3 7 9 9 9 10 10 11 11 12 13 14 15 16 16 15 16 15 15 15 15 15 15 14 13 12 10 9 8 7 6 5 5 5 5 6 6 7 7 8 11 13 14 16 17 19 18 18 20 20 17 16 17
3 3 4 4 3 3 5 5 4 4 2 3 4 4 3 1 2 3 6 3 5 3 2 3 5 6 6 7 7 7 7 5 3 5 7 9 9 9 9 10 11 12 12 12 13 15 16 16 16 16 16 15 15 16 16 16 15 14 12 12 11 10 9 8 7 6 6 6 6 6 6 7 10 12 12 13 14 15 16 17 18 20 21 19 17 16
4 3 4 5 4 2 3 5 4 2 1 4 5 4 3 2 2 5 5 1 4 1 2 3 5 6 6 6 6 5 4 5 5 6 8 9 9 9 9 10 11 12 13 13 13 14 15 15 16 17 17 16 16 16 15 15 15 14 13 13 12 11 10 9 8 8 8 7 6 6 7 8 11 13 14 16 17 17 18 19 20 21 22 21 19 15
4 3 3 5 4 1 2 5 5 1 3 5 6 5 4 3 4 5 3 3 3 1 2 2 5 6 5 6 5 4 4 5 6 7 8 8 9 9 10 11 11 12 13 14 14 13 14 15 16 16 17 16 16 15 15 15 15 15 14 14 13 12 11 11 9 9 9 8 7 7 7 8 11 13 14 17 19 19 20 21 22 22 24 24 20 15
3 3 3 3 3 2 2 4 6 2 3 5 5 5 4 4 3 2 2 3 1 2 2 3 5 5 5 6 5 5 6 7 8 8 9 9 9 9 10 11 12 13 14 15 15 14 14 15 16 16 17 16 16 15 15 15 15 15 15 15 14 13 13 12 11 10 10 9 8 7 7 8 10 10 11 13 16 19 22 23 22 23 26 26 22 18
1 2 3 2 1 2 3 4 5 3 3 8 7 5 5 5 3 4 2 1 2 2 3 4 4 4 5 6 6 7 8 9 9 9 9 10 10 11 12 12 13 14 14 15 16 15 14 15 15 16 17 16 16 16 15 15 15 15 15 15 14 13 13 12 12 11 11 10 10 8 8 8 9 10 11 12 15 18 21 22 21 21 23 25 24 22
2 3 4 1 2 2 3 2 2 2 5 9 7 3 4 5 4 5 4 4 3 4 4 4 4 5 6 6 7 8 9 9 9 10 10 11 11 12 13 13 13 14 14 14 15 14 14 15 16 16 17 17 17 17 16 15 15 15 16 16 14 13 13 12 12 12 12 11 11 10 9 9 9 11 11 12 14 16 17 18 18 18 19 21 21 21
2 1 4 3 2 3 5 4 2 2 4 7 6 5 6 6 6 6 6 6 5 4 4 4 5 6 6 7 8 8 9 9 9 10 11 12 12 12 13 13 14 14 14 14 14 14 14 15 16 16 17 18 18 18 16 16 16 16 17 16 15 13 13 12 12 12 12 12 12 11 10 9 10 11 11 12 13 15 16 17 18 20 20 19 19 20
2 1 2 3 3 4 6 7 6 5 5 6 7 6 6 7 7 6 6 6 6 5 5 5 6 7 7 8 8 8 9 10 10 11 12 11 11 12 13 14 14 14 14 15 14 14 14 15 16 17 17 18 18 18 17 17 17 17 17 17 16 14 13 13 13 13 13 13 12 11 10 10 11 11 11 13 14 15 17 18 20 22 22 21 21 23
4 4 4 5 4 3 3 3 3 4 5 5 5 6 6 7 7 6 6 6 6 7 7 7 7 8 8 8 8 9 9 10 10 11 11 10 10 12 14 14 15 16 16 16 16 16 16 16 18 19 19 19 18 18 19 19 19 19 19 18 17 16 14 14 14 14 15 15 13 12 11 11 11 11 11 12 14 15 17 18 20 21 22 23 23 23
3 3 4 7 7 7 7 6 4 4 5 5 6 6 6 7 6 5 5 6 7 8 8 8 8 8 7 7 8 8 9 10 10 10 10 10 11 12 14 15 16 17 18 18 18 18 18 18 19 19 20 20 20 19 20 20 20 20 21 20 18 17 15 15 15 15 16 16 15 13 12 11 12 12 12 13 14 15 16 18 20 21 23 25 24 23
3 3 3 4 6 7 8 8 6 6 7 8 8 7 6 5 4 5 6 7 8 9 9 8 8 7 7 7 7 8 9 10 10 11 11 11 11 14 16 18 18 19 20 20 20 20 19 19 18 18 18 20 21 22 22 21 20 21 21 20 18 16 15 15 15 16 17 17 15 13 12 12 12 12 13 13 14 16 18 19 21 22 22 23 25 27
3 5 5 4 5 6 4 3 3 4 6 5 4 5 5 4 5 7 7 7 8 8 8 7 7 7 7 7 8 9 9 9 11 13 13 12 14 16 18 19 19 19 20 20 20 19 19 19 17 16 16 19 22 24 24 22 21 21 21 20 18 16 16 16 16 16 16 16 15 14 13 13 13 12 13 13 13 15 17 19 22 24 23 21 24 30
6 6 5 5 6 5 5 4 4 4 6 5 4 5 4 4 6 8 8 7 8 7 6 7 7 7 7 8 10 11 10 10 13 14 13 14 16 18 18 17 17 18 18 18 18 18 19 18 16 16 17 19 22 25 25 24 23 22 21 20 18 17 17 17 16 16 16 15 15 14 13 14 14 14 13 13 13 14 15 16 18 23 25 24 25 28
Wind_Direction
260 236 136 23 15 6 350 312 288 295 279 255 243 237 241 244 242 239 225 103 259 262 246 241 252 253 253 248 214 176 202 219 227 222 219 215 207 203 203 196 184 180 161 146 153 159 159 158 161 166 166 165 165 165 161 159 161 163 164 162 158 155 153 152 152 153 151 145 142 141 138 133 128 124 118 110 99 91 82 75 65 54 47 42 44 34
257 267 54 25 8 7 351 325 274 256 238 236 235 230 228 230 233 235 230 114 171 249 230 208 250 246 239 242 190 202 227 225 228 223 219 219 213 205 203 194 181 171 150 147 154 158 159 159 161 165 167 168 170 168 165 166 167 167 168 167 165 163 163 163 160 156 151 144 139 136 135 131 124 120 117 111 103 96 89 79 67 56 42 34 37 39
222 52 41 14 2 2 2 23 253 238 232 234 230 233 233 220 228 228 163 141 177 246 222 168 249 246 229 243 233 235 247 236 231 232 225 220 214 207 200 194 186 177 165 164 165 163 165 164 163 165 169 173 173 171 170 172 172 172 173 174 174 174 172 168 162 155 147 138 127 124 124 119 114 110 108 109 106 101 93 82 68 53 37 28 29 35
228 42 26 1 340 298 331 60 290 247 227 240 247 244 236 161 236 226 156 151 179 244 272 266 254 248 221 206 197 207 261 244 215 224 228 226 225 222 211 202 198 192 182 177 175 171 170 169 167 170 171 171 173 174 177 179 177 179 182 182 182 183 178 167 162 153 142 135 124 119 115 108 110 113 112 112 109 104 95 83 68 53 40 37 35 40
45 31 6 328 311 299 301 20 348 300 250 223 346 305 306 6 295 273 167 178 203 214 241 261 249 235 216 198 157 127 136 71 45 18 352 246 249 252 246 231 218 210 199 189 186 179 175 175 174 174 173 172 177 178 180 183 183 185 188 189 187 185 179 168 161 152 144 140 130 125 123 118 120 125 129 127 118 112 102 87 74 64 56 59 61 61
52 26 344 310 323 329 311 357 7 331 290 222 51 5 341 336 309 291 274 241 238 220 190 249 259 226 199 208 160 107 83 63 52 40 34 29 354 274 251 245 236 228 220 207 200 189 183 182 177 176 176 177 180 181 181 184 187 190 190 192 191 185 179 171 164 158 152 149 145 143 143 142 145 143 140 132 124 121 109 98 88 79 72 70 72 75
48 23 351 329 322 324 313 339 12 347 296 260 34 9 339 317 300 282 269 255 259 251 159 230 267 241 202 201 70 52 69 61 52 47 37 26 18 355 298 254 238 229 221 210 207 202 192 187 181 179 181 181 183 182 180 182 188 195 194 193 193 188 183 176 171 168 163 161 160 159 157 155 157 150 137 126 123 123 114 111 105 93 85 79 78 79
29 23 16 354 329 319 327 343 1 344 305 309 13 348 323 309 300 290 276 261 270 279 219 230 256 266 238 177 68 68 87 59 40 40 33 23 20 11 358 320 268 240 228 216 207 203 196 192 188 185 183 183 183 180 180 183 187 195 199 198 198 194 188 183 179 178 176 172 168 166 162 154 152 146 142 141 135 129 124 120 114 105 98 88 84 85
36 28 22 2 350 355 356 356 355 335 309 349 354 324 305 299 295 294 279 265 270 274 256 240 238 258 248 141 77 53 61 39 27 32 27 22 21 15 10 355 323 272 242 230 219 209 199 194 191 189 186 182 180 178 180 184 185 191 198 202 204 202 198 191 187 188 188 184 176 172 165 154 148 145 146 148 143 138 134 128 122 116 111 102 97 97
58 36 29 15 13 7 350 342 348 331 312 334 329 304 277 266 266 261 259 259 259 256 263 269 241 253 255 86 54 38 37 19 16 27 24 22 22 17 14 8 358 327 261 235 228 223 212 201 192 188 184 181 179 176 179 186 189 191 194 200 204 205 205 200 195 195 197 192 184 179 171 160 153 150 151 152 148 147 143 136 132 124 121 118 111 109
93 92 59 34 19 354 334 320 322 315 308 306 299 289 278 286 282 259 243 240 245 241 245 10 337 269 253 62 39 40 36 15 12 19 21 21 22 21 17 13 13 7 345 270 240 233 226 214 199 188 183 182 181 175 178 191 198 195 192 198 204 205 206 205 202 201 202 200 196 189 177 167 160 157 157 158 156 155 152 143 137 131 126 123 119 118
120 130 86 57 27 357 330 308 290 272 302 300 282 278 281 315 318 277 257 231 236 220 124 62 10 263 244 60 46 48 40 24 18 17 17 18 20 23 22 19 19 18 16 9 329 257 238 225 213 202 189 186 184 180 185 195 202 202 197 197 203 208 207 207 205 204 205 207 205 197 184 173 166 162 162 163 161 158 154 148 142 138 132 128 128 126
156 79 42 44 50 7 341 319 317 290 310 312 296 279 263 266 309 269 273 243 240 203 98 48 11 257 151 63 38 38 37 25 21 18 16 17 18 22 26 27 26 22 21 20 11 345 298 259 235 219 206 201 198 195 198 204 206 206 204 202 204 207 207 207 206 205 207 208 208 202 190 178 169 166 164 163 161 158 155 151 147 144 139 134 135 132
58 115 40 2 3 3 348 335 340 333 328 333 340 328 282 265 246 243 236 236 248 160 120 83 27 182 137 82 29 31 39 29 22 19 16 16 18 19 23 28 31 30 28 23 16 6 352 323 284 244 227 222 213 202 203 212 213 209 209 207 205 205 206 208 208 206 206 204 204 204 195 184 173 167 165 162 161 158 154 153 151 145 141 137 136 135
330 141 35 11 350 350 355 356 346 326 313 332 344 312 298 308 308 291 265 269 314 107 139 152 172 192 160 101 28 21 27 24 20 18 16 16 17 17 20 23 25 29 31 28 21 12 1 347 333 297 257 240 222 209 207 217 218 213 213 211 207 206 204 206 209 206 204 202 201 202 198 191 179 168 165 160 159 158 154 153 151 146 142 139 136 136
317 350 46 27 345 352 3 9 351 324 309 353 317 288 303 347 315 305 298 332 346 340 145 151 153 102 132 111 28 12 10 12 10 12 13 12 14 12 16 21 17 18 22 26 26 18 4 351 339 322 290 259 229 215 212 215 214 216 221 217 210 208 203 202 205 204 204 202 199 198 198 195 184 170 163 158 156 156 154 154 152 149 147 143 140 139
322 12 55 14 356 29 9 1 7 348 330 325 298 333 3 323 296 289 268 331 302 265 165 146 150 113 143 139 21 9 8 10 5 6 7 7 9 6 9 12 8 9 10 12 20 20 12 0 342 325 303 276 245 224 218 220 221 224 225 216 210 209 200 189 190 200 208 205 200 198 197 195 187 173 163 158 156 155 155 156 156 155 153 151 148 145
319 338 67 13 358 49 352 316 9 11 347 331 2 16 342 291 267 282 280 251 255 248 114 164 153 97 161 221 20 10 7 7 360 358 0 3 5 4 4 2 358 1 1 1 9 14 15 10 355 330 313 302 279 254 242 240 238 237 229 219 212 202 186 179 185 193 201 203 202 201 199 195 188 177 165 159 157 156 159 161 162 161 160 159 156 153
313 298 90 42 355 36 12 302 343 35 28 18 38 21 321 303 272 282 296 302 297 305 92 155 127 72 32 12 18 11 6 3 355 353 356 1 3 1 360 358 355 356 357 358 2 7 12 13 7 346 324 325 313 288 276 264 253 253 245 223 200 188 183 190 195 191 188 197 201 200 199 196 190 182 171 163 161 161 163 166 166 166 165 166 164 161
316 297 79 61 9 337 17 16 5 29 49 58 138 36 352 336 334 345 331 310 313 316 336 143 142 85 47 18 5 8 8 1 355 354 357 359 360 359 359 356 355 355 358 359 357 1 7 10 12 3 334 319 311 290 277 270 251 253 253 209 185 187 190 199 201 189 182 192 197 196 196 195 194 189 179 170 166 165 167 169 169 169 169 172 172 168
298 289 21 61 123 234 0 34 18 9 17 9 3 18 6 338 306 329 311 304 315 315 334 333 152 91 63 13 2 10 6 2 359 355 355 358 359 2 1 358 357 356 358 0 357 357 1 6 12 11 358 323 307 302 287 274 247 222 219 209 210 209 201 202 201 192 186 192 199 197 193 194 195 194 186 177 173 171 171 171 171 172 174 177 178 175
336 300 338 22 71 59 61 49 20 10 8 5 13 10 350 342 317 285 237 59 327 324 344 319 343 87 74 7 10 11 2 4 5 355 352 359 3 5 4 360 1 1 0 3 1 358 359 1 5 11 12 356 324 310 294 284 260 227 211 213 228 230 218 208 199 191 188 193 202 200 193 192 195 195 191 185 182 180 176 175 174 176 178 181 182 181
334 299 311 11 33 44 94 100 28 13 3 8 28 10 338 335 327 314 352 24 326 318 319 290 330 83 68 11 11 7 3 4 4 0 357 1 5 4 5 4 5 6 4 7 7 4 4 3 1 7 12 11 4 333 272 265 258 241 222 219 231 235 229 215 201 196 188 188 200 203 197 194 195 198 198 192 191 189 184 180 178 180 184 186 186 185
279 297 303 178 112 125 151 165 194 275 309 7 26 4 343 335 333 330 339 335 319 3 325 282 67 92 60 12 8 4 8 4 5 8 4 6 7 0 0 2 3 6 7 11 14 12 11 10 7 7 9 14 18 12 311 259 252 244 231 226 230 235 234 220 207 203 196 194 202 205 206 205 201 203 204 201 200 197 191 187 184 186 190 189 188 189
302 336 321 294 213 166 181 195 199 213 332 16 9 350 347 334 307 300 308 288 268 17 339 319 38 81 62 14 8 5 5 7 11 11 6 10 6 357 356 355 356 0 4 10 16 17 17 16 13 11 9 12 19 23 12 293 249 236 227 225 227 233 237 234 220 210 205 206 206 202 204 212 213 210 208 206 204 199 195 195 192 189 192 191 192 191
312 357 340 327 345 6 351 4 36 348 339 10 7 354 355 341 306 284 281 263 189 51 357 345 24 53 44 14 12 10 5 5 10 10 11 14 7 2 359 355 355 358 0 5 9 12 17 18 20 19 11 7 12 19 21 12 312 237 223 222 229 231 233 235 230 218 209 209 208 203 203 209 217 219 214 211 209 203 199 198 195 193 191 190 191 192
276 24 5 348 353 358 358 15 25 342 322 339 16 8 10 356 324 300 292 320 18 26 86 60 358 335 6 13 8 9 3 359 4 6 8 10 7 6 4 2 3 1 359 2 3 8 14 16 20 22 17 10 7 10 15 17 16 354 240 224 236 237 233 235 233 224 216 212 211 210 208 211 219 223 220 217 214 209 204 200 198 196 190 186 188 191
264 54 22 351 359 0 349 0 8 325 330 344 350 2 15 3 342 338 350 357 344 308 115 69 351 325 6 11 359 2 357 350 358 2 359 1 1 1 2 5 9 8 5 4 3 6 11 11 14 18 19 17 11 9 9 10 13 8 346 262 249 252 248 243 237 229 224 218 216 216 214 215 220 222 222 221 217 212 211 208 204 200 194 191 190 191
286 28 45 296 341 10 319 280 156 134 112 146 279 358 17 9 6 14 9 347 336 333 17 32 350 341 9 3 353 357 349 342 349 349 347 354 356 356 356 357 4 9 8 6 4 3 3 4 6 9 12 15 13 12 10 6 6 4 355 337 290 268 257 247 237 232 229 225 222 221 217 217 220 221 222 221 218 215 215 214 211 207 206 204 197 190
297 61 118 245 276 24 327 201 171 170 158 156 174 309 342 352 11 18 6 348 345 5 19 352 330 358 22 2 348 347 340 336 337 335 340 349 353 352 351 351 355 359 1 2 3 1 359 357 358 0 2 2 2 7 10 4 359 356 351 342 321 293 271 253 243 239 236 231 227 223 221 221 220 221 221 216 213 215 215 215 215 213 212 209 197 185
299 50 138 232 257 70 104 186 181 184 167 145 154 165 251 286 302 320 330 322 302 341 6 317 289 21 34 1 341 335 334 333 334 338 340 344 347 347 347 349 350 350 351 352 353 355 355 353 353 354 353 351 351 353 356 354 350 348 339 327 316 303 283 263 252 250 248 242 235 227 225 225 222 221 219 213 211 215 213 211 213 213 210 205 194 184
307 236 161 234 259 126 143 198 188 195 249 243 213 188 211 268 287 306 303 290 288 307 318 292 286 10 6 343 333 334 336 336 338 341 339 338 342 342 343 346 346 345 346 346 346 348 349 348 348 349 347 344 344 344 343 336 332 339 333 318 310 299 278 260 254 256 256 254 250 241 231 229 227 224 219 212 209 211 210 210 211 208 204 202 195 188
322 286 213 256 273 187 152 212 210 231 262 258 205 166 180 247 294 294 272 258 255 266 296 318 347 354 339 331 332 334 338 338 335 335 335 335 337 337 339 342 342 344 344 343 343 345 346 346 344 342 342 340 340 340 337 327 315 313 313 306 298 289 274 260 256 259 261 261 259 254 244 237 233 230 226 218 210 206 208 211 210 204 201 200 196 193
305 295 329 305 283 285 137 199 229 249 267 279 105 116 186 273 290 293 283 269 252 245 278 316 331 334 330 331 332 332 336 336 330 330 337 337 337 338 338 340 343 345 344 344 344 344 345 344 341 339 339 338 337 336 333 329 320 307 303 301 293 280 271 264 259 261 264 265 262 258 253 245 239 240 235 219 207 206 209 210 207 203 201 198 193 193
283 294 317 251 283 312 142 199 236 261 236 118 121 124 81 336 296 296 292 272 251 247 260 283 315 332 331 328 327 328 333 334 331 343 358 355 352 346 342 343 346 346 345 345 345 344 344 342 340 338 337 334 335 334 334 335 331 318 309 308 299 281 273 272 268 265 265 268 267 263 259 253 248 247 236 211 205 210 212 210 206 202 199 195 192 194
279 265 233 245 277 284 209 216 246 337 117 145 158 160 171 205 238 283 285 245 196 231 260 284 316 327 325 322 323 328 330 329 333 39 17 8 7 358 349 349 348 347 348 348 348 347 345 342 340 338 334 331 332 335 339 340 337 330 323 317 306 288 279 282 284 283 278 273 272 266 259 255 249 244 229 210 208 209 208 206 203 200 198 193 190 194
275 259 246 255 247 268 271 254 265 290 203 180 174 158 190 256 304 308 294 245 158 198 268 295 313 321 325 323 325 329 324 308 228 78 22 12 11 3 356 355 351 349 349 350 352 351 348 344 342 339 336 333 333 337 342 340 338 336 330 324 321 318 312 303 300 302 294 283 279 270 259 254 248 240 226 211 206 205 204 203 201 199 195 188 187 195
259 272 284 283 228 242 286 280 268 281 258 166 147 121 106 330 325 284 284 251 156 163 264 298 312 320 324 322 324 328 318 295 258 38 14 8 7 360 356 359 358 354 351 352 354 354 352 349 345 342 341 340 339 341 340 338 337 336 333 334 335 335 332 325 319 319 310 296 287 273 262 255 243 234 227 219 215 211 209 203 195 193 191 188 193 200
228 247 262 270 247 232 275 284 274 287 328 113 133 138 139 192 216 247 269 232 151 155 272 293 303 313 320 322 322 321 315 311 331 2 2 359 356 353 352 356 358 356 354 357 358 354 350 349 348 348 349 348 347 345 340 338 337 333 335 339 338 336 338 335 331 330 322 312 297 274 258 248 241 235 227 222 219 212 206 203 198 198 199 200 204 206
224 238 244 258 262 230 266 283 285 297 76 128 138 139 135 151 207 252 269 173 131 170 291 290 296 307 316 316 313 311 318 326 331 343 349 344 340 342 345 348 351 352 351 354 355 351 347 347 349 351 352 353 350 347 344 343 340 335 335 336 333 334 340 340 336 331 323 316 303 280 256 241 244 246 238 229 224 220 218 218 214 209 205 202 203 204
235 244 259 270 272 231 239 274 283 307 120 142 147 133 133 165 215 253 290 66 90 300 308 289 290 303 312 310 308 313 327 328 320 326 334 331 329 334 337 338 341 342 344 346 347 344 342 344 347 347 349 351 348 346 346 346 343 340 337 335 333 333 334 331 327 323 317 312 303 288 265 244 245 248 244 238 235 233 232 229 219 209 203 199 198 200
251 235 237 257 269 266 269 279 282 292 118 140 144 132 158 213 255 320 18 48 33 310 320 302 296 307 310 307 309 312 317 319 315 318 327 330 330 328 328 331 334 336 338 340 341 343 342 339 340 341 342 344 344 342 343 341 339 340 338 336 336 335 330 325 318 313 309 303 298 290 272 256 248 242 237 233 230 229 230 227 217 206 203 201 200 205
278 265 251 222 217 262 263 263 281 301 122 144 150 147 187 234 324 12 357 298 271 283 297 299 308 322 315 307 309 308 311 315 315 319 325 329 330 326 324 327 329 330 335 336 339 344 343 338 338 340 338 338 338 337 337 334 333 334 334 333 335 333 328 323 318 313 308 302 297 289 276 263 251 240 233 226 220 219 220 218 209 202 202 202 201 206
188 250 287 271 159 241 261 261 331 31 128 161 182 213 233 249 307 331 305 289 283 281 294 307 320 328 319 306 304 306 309 313 316 320 324 326 329 328 325 326 326 327 332 336 338 343 342 339 339 340 339 339 337 333 331 329 327 326 325 327 330 328 324 324 323 319 313 306 299 290 281 270 256 244 237 230 219 215 215 211 202 197 200 202 203 206
181 251 323 320 228 253 283 300 344 51 144 177 213 268 283 279 285 284 277 283 289 291 302 308 311 319 316 307 305 308 310 315 320 323 325 327 329 328 327 328 327 328 332 336 338 339 338 335 336 337 339 341 340 335 331 328 324 319 317 319 322 321 320 322 323 321 317 312 305 296 286 275 263 250 243 234 221 217 221 214 201 199 203 204 205 208
199 208 288 286 272 275 274 269 267 262 242 225 233 251 268 279 280 272 265 268 276 288 296 297 303 312 314 312 311 309 311 320 324 323 324 326 328 330 331 329 328 329 330 331 332 333 330 328 329 333 336 338 338 337 334 331 325 318 313 313 313 311 312 316 317 317 316 313 309 302 290 278 268 257 246 236 226 224 226 218 206 204 205 204 204 205
198 199 226 249 265 283 267 244 241 257 255 249 249 248 252 261 263 261 262 266 274 287 294 295 298 300 303 307 310 310 313 319 321 320 322 326 327 330 330 328 327 327 325 325 327 328 326 324 324 327 329 332 335 335 333 331 327 322 316 311 306 304 304 306 308 310 310 310 308 302 293 283 275 267 255 243 235 232 228 222 217 213 207 205 208 208
155 182 238 248 246 256 269 275 276 264 252 249 256 265 270 269 262 253 260 271 279 283 285 287 288 290 296 304 308 309 311 314 317 319 322 323 324 325 326 325 324 322 320 319 319 321 322 322 321 322 323 327 330 332 330 327 324 324 321 313 305 300 299 299 300 301 303 304 304 300 297 290 280 271 264 256 247 242 236 230 226 220 215 214 212 207
115 189 242 259 256 258 267 273 271 263 256 248 245 254 268 280 281 273 268 273 281 285 287 288 286 287 295 304 310 312 310 312 317 320 320 319 319 321 322 321 319 318 317 317 317 317 318 318 319 319 320 323 326 328 327 324 320 320 321 317 308 300 297 296 296 297 298 298 297 297 298 296 288 276 269 264 256 250 246 241 235 231 227 222 215 209
201 238 242 242 256 263 275 298 305 286 279 270 249 247 251 261 279 283 282 283 288 291 293 291 291 295 303 308 312 311 308 310 315 317 317 315 317 319 319 319 320 319 319 320 320 319 318 318 319 319 318 320 324 325 325 323 319 317 319 318 312 302 298 298 296 297 299 298 296 298 301 299 296 289 278 269 263 258 253 246 240 238 237 228 219 218
220 253 249 239 262 285 305 321 317 287 284 296 291 271 260 262 277 283 290 296 298 298 296 295 302 309 310 307 308 307 306 308 313 315 315 314 316 319 321 323 324 322 320 321 320 319 319 321 320 318 317 319 321 323 324 323 319 315 315 317 315 306 298 295 295 297 300 300 299 302 303 300 299 297 287 276 269 264 260 253 240 234 235 233 228 227